Location: Garbet
(42.8837°N, 1.2115°E)
Time: 13:56:29
(UTC+00:00)

Cosmos 2151 - Pass Details

Date: 13 December 2025
Orbit: 559 x 575 km, 82.5° (Epoch: 19 January)

Event Time Altitude Azimuth Distance (km) Brightness Sun altitude
Rises 17:04:20 0° 349° (N) 2,792 6.3 -7.8°
Reaches altitude 10° 17:06:32 10° 348° (NNW) 1,891 5.4 -8.2°
Maximum altitude 17:10:41 74° 264° (W) 605 3.2 -8.9°
Drops below altitude 10° 17:14:49 10° 180° (S) 1,881 5.8 -9.6°
Sets 17:17:00 0° 178° (S) 2,775 6.7 -9.9°
